sat.trackr.live / text

‹ back to catalog

STARLINK-5201

NORAD 54076 · 2022-136AB

PAYLOAD ACTIVE UNKNOWN

§ Identity

Operator
Country
US
Launch date
2022-10-20
Launch site
AFETR
Launch vehicle
Mass (kg)
RCS (m²)

Purposes: comms

External: N2YO · Heavens-Above · Gunter

§ Orbital elements

Epoch: 2026-05-25T00:23:37.540608Z

Period
95.44 min
Inclination
53.2151°
Eccentricity
0.0001439
Mean motion
15.08841647 rev/d
Perigee alt
538.7 km
Apogee alt
540.7 km
Semi-major
6,917.9 km
B*
2.6495e-5
RAAN
1.6782°
Arg perigee
83.6985°
Mean anomaly
276.4171°
Rev number
19,836

§ Raw data

STARLINK-52011 54076U 22136AB  26145.01640672  .00000134  00000+0  26495-4 0  99972 54076  53.2151   1.6782 0001439  83.6985 276.4171 15.08841647198360

JSON: /api/v1/satellites/54076 · /tle

For live sub-satellite position, see the globe view (requires WebGL).

§ Visibility from observer

Set your observer location to see the next 7 days of passes ≥ 10°. The values pass through the URL so the page stays shareable.

No JS? Fill the form by hand. The geolocation button needs JavaScript.